TimeMST,TemperatureF,Dew PointF,Humidity,Sea Level PressureIn,VisibilityMPH,Wind Direction,Wind SpeedMPH,Gust SpeedMPH,PrecipitationIn,Events,Conditions,WindDirDegrees,DateUTC
12:00 AM,41.5,27.5,57,-9999,-9999.0,West,26.5,-,N/A,,Unknown,260,2013-02-16 07:00:00
1:00 AM,41.2,27.3,58,-9999,-9999.0,West,24.2,-,N/A,,Unknown,260,2013-02-16 08:00:00
2:00 AM,42.4,26.6,54,-9999,-9999.0,West,25.3,-,N/A,,Unknown,260,2013-02-16 09:00:00
4:00 AM,41.9,25.9,53,-9999,-9999.0,West,20.7,-,N/A,,Unknown,260,2013-02-16 11:00:00
5:00 AM,43,27,40,,,West,23.0,,,,,270,2013-02-16 12:00:00
5:00 AM,42.6,27.0,54,-9999,-9999.0,West,23.0,-,N/A,,Unknown,270,2013-02-16 12:00:00
6:00 AM,42.1,27.7,57,-9999,-9999.0,West,18.4,-,N/A,,Unknown,280,2013-02-16 13:00:00
7:00 AM,41.9,27.5,57,-9999,-9999.0,NW,12.7,-,N/A,,Unknown,310,2013-02-16 14:00:00
8:00 AM,40.5,27.9,61,-9999,-9999.0,West,19.6,-,N/A,,Unknown,270,2013-02-16 15:00:00
9:00 AM,43.3,27.7,54,-9999,-9999.0,SW,5.8,-,N/A,,Unknown,230,2013-02-16 16:00:00
10:00 AM,46.8,27.0,46,-9999,-9999.0,West,29.9,-,N/A,,Unknown,270,2013-02-16 17:00:00
11:00 AM,48,27,32,,,West,23.0,,,,,270,2013-02-16 18:00:00
11:00 AM,47.8,27.3,45,-9999,-9999.0,West,23.0,-,N/A,,Unknown,270,2013-02-16 18:00:00
12:00 PM,51.4,27.3,39,-9999,-9999.0,West,28.8,-,N/A,,Unknown,260,2013-02-16 19:00:00
1:00 PM,50.0,27.7,42,-9999,-9999.0,West,26.5,-,N/A,,Unknown,260,2013-02-16 20:00:00
2:00 PM,49.8,27.7,42,-9999,-9999.0,West,25.3,-,N/A,,Unknown,260,2013-02-16 21:00:00
3:00 PM,52.7,28.0,39,-9999,-9999.0,West,27.6,-,N/A,,Unknown,260,2013-02-16 22:00:00
4:00 PM,48.2,29.1,48,-9999,-9999.0,West,19.6,-,N/A,,Unknown,280,2013-02-16 23:00:00
5:00 PM,48,29,35,,,West,16.1,,,,,270,2013-02-17 00:00:00
5:00 PM,48.2,29.1,48,-9999,-9999.0,West,16.1,-,N/A,,Unknown,270,2013-02-17 00:00:00
6:00 PM,43.9,28.2,54,-9999,-9999.0,West,18.4,-,N/A,,Unknown,270,2013-02-17 01:00:00
7:00 PM,36.5,25.7,65,-9999,-9999.0,South,5.8,-,N/A,,Unknown,180,2013-02-17 02:00:00
8:00 PM,36.1,28.0,72,-9999,-9999.0,WSW,8.1,-,N/A,,Unknown,240,2013-02-17 03:00:00
9:00 PM,36.5,27.3,69,-9999,-9999.0,WSW,16.1,-,N/A,,Unknown,240,2013-02-17 04:00:00
10:00 PM,34.7,29.1,80,-9999,-9999.0,West,16.1,-,N/A,,Unknown,270,2013-02-17 05:00:00
11:00 PM,37,28,61,,,West,26.5,,,,,260,2013-02-17 06:00:00
11:00 PM,37.2,28.4,70,-9999,-9999.0,West,26.5,-,N/A,,Unknown,260,2013-02-17 06:00:00